Location: �clusier
(49.9361°N, 2.7869°E)
Time: 18:45:09
(UTC+00:00)

Centaur D AC-29 - Pass Details

Date: 31 October 2021
Orbit: 563 x 36274 km, 26.9° (Epoch: 02 December)

Event Time Altitude Azimuth Distance (km) Brightness Sun altitude
Rises 22:50:01 0° 73° (ENE) 41,610 10.3 -53.1°
Reaches altitude 10° 00:24:03 10° 79° (ENE) 40,374 10.4 -52.7°
Maximum altitude 02:27:00 18° 82° (E) 31,223 10.1 -39.7°
Drops below altitude 10° 03:37:32 10° 78° (ENE) 21,617 9.8 -29.2°
Sets 04:01:11 0° 73° (ENE) 17,795 9.8 -25.4°
